Location: *
(43.9900°N, 3.4811°E)
Time: 10:52:42
(UTC+00:00)

Cosmos 1833 Rocket - Pass Details

Date: 25 August 2019
Orbit: 834 x 839 km, 71.0° (Epoch: 18 September)

Event Time Altitude Azimuth Distance (km) Brightness Sun altitude
Rises 19:17:09 0° 169° (S) 3,375 5.5 -8.0°
Reaches altitude 10° 19:19:56 10° 157° (SSE) 2,445 4.7 -8.5°
Maximum altitude 19:24:29 26° 102° (ESE) 1,594 3.6 -9.2°
Drops below altitude 10° 19:29:04 10° 48° (NE) 2,458 4.9 -10.0°
Sets 19:31:51 0° 36° (NE) 3,397 5.7 -10.4°
